Zurück zum Katalog

CZ-4C R/B

AktivSSO
NORAD 52201·ROCKET BODY·🇨🇳 China

Gestartet Apr 6, 2022 von Jiuquan Satellite Launch Center

Loading…

Nächste Überflüge (nächste 24 Stunden)

TLE

AktuellSource: Space-Track

Epoche: Sep 14, 2026, 10:43 UTC

1 52201U 22035B   26257.44655627  .00000352  00000-0  57097-4 0  9995
2 52201  98.2230 326.7376 0103199 309.9803  49.2377 14.74533529238609

Verfolge CZ-4C R/B in Echtzeit mit AllMySat

Download on the App Store